Flag for U.S.A. Weather past 2 weeks in Virginia Beach, Virginia, U.S.A.

Now
48 °F

Drizzle. Fog.


Feels Like: 42 °F
Forecast: 46 / 56 °F
Wind: 16 mph from Northeast

Location: Virginia Beach - Oceana

Current Time: Apr 26, 2015 at 5:09:11 AM

Latest Report: Apr 26, 2015 at 3:56 AM


Visibility: 5 mi

Pressure: 29.63 "Hg

Humidity: 86%

Dew point: 44 °F

Location of Virginia BeachLocation

Historic Weather in Virginia Beach — Graph

°F

Virginia Beach temperature yesterday

Maximum temperature yesterday: 55 °F (at 9:56 AM)
Minimum temperature yesterday: 45 °F (at 4:56 AM)
Average temperature yesterday: 50 °F

Past Weeks' High & Low Weather Summary

 TemperatureHumidityPressure
High81 °F (Apr 20, 2:56 PM)93% (Apr 19, 3:56 AM)30.40 "Hg (Apr 19, 3:56 AM)
Low45 °F (Apr 25, 4:56 AM)22% (Apr 22, 3:56 PM)29.62 "Hg (Apr 26, 2:56 AM)
Average62 °F63%30.02 "Hg
* Reported Apr 11 3:56 AM — Apr 26 3:56 AM, Virginia Beach, Weather by CustomWeather, © 2015

Note: Actual official high and low records may vary slightly from our data, if they occured in-between our weather recording intervals... More about our weather records

Advertising

Virginia Beach weather history for previous 24 hours

 ConditionsComfort  
Time TempWeatherWind HumidityBarometerVisibility
3:56 AM
Sun, Apr 26
48 °FDrizzle. Fog.16 mph86%29.63 "Hg5 mi
2:56 AM50 °FLow clouds.15 mph83%29.62 "Hg10 mi
1:56 AM49 °FLow clouds.9 mph86%29.65 "Hg10 mi
12:56 AM49 °FLight rain. Fog.8 mph90%29.65 "Hg5 mi
11:56 PM
Sat, Apr 25
49 °FLight rain. Fog.14 mph86%29.67 "Hg3 mi
10:56 PM50 °FLight rain. Low clouds.9 mph86%29.66 "Hg7 mi
9:56 PM49 °FLight rain. Low clouds.10 mph86%29.68 "Hg7 mi
8:56 PM48 °FLight rain. Fog.12 mph86%29.70 "Hg5 mi
7:56 PM47 °FLight rain. Fog.10 mph86%29.74 "Hg2 mi
6:56 PM47 °FLight rain. Fog.10 mph86%29.77 "Hg2 mi
5:56 PM47 °FLight rain. Fog.7 mph86%29.80 "Hg3 mi
4:56 PM49 °FRain. Mostly cloudy.7 mph80%29.81 "Hg3 mi
3:56 PM51 °FLight rain. Overcast.6 mph71%29.83 "Hg9 mi
2:56 PM52 °FLight rain. Overcast.6 mph69%29.86 "Hg9 mi
1:56 PM53 °FLight rain. Overcast.6 mph61%29.89 "Hg10 mi
12:56 PM54 °FLight rain. Overcast.9 mph55%29.90 "Hg10 mi
11:56 AM54 °FCloudy.7 mph64%29.94 "Hg10 mi
10:56 AM52 °FLight rain. Mostly cloudy.8 mph66%29.96 "Hg10 mi
9:56 AM55 °FOvercast.6 mph59%29.98 "Hg10 mi
8:56 AM54 °FOvercast.7 mph57%29.94 "Hg10 mi
7:56 AM51 °FMostly cloudy.No wind77%29.94 "Hg10 mi
6:56 AM46 °FPassing clouds.No wind77%29.94 "Hg10 mi
5:56 AM46 °FPassing clouds.No wind73%29.93 "Hg10 mi
Weather by CustomWeather, © 2015

See weather overviewHow to use our weather pages